Weather in Lonchakovo

Russia / Khabarovsk Krai     47°05′45″N   134°13′15″E
temp.,
°C
wind,
m/s
gust,
m/s
humid.,
%
clouds,
%
prec.,
mm/h
press.,
hPa
HPBL,
m
26 february, fri
fri2601:00−24s119625 0.0 102620
04:00−25s009633 0.0 102620
07:00−25ssw119462 0.0 102720
10:00−20ssw128848 0.0 1028217
13:00−14w238152 0.0 1029772
16:00−14nw358676 0.1 1028687
19:00−19nnw119473 0.0 103220
22:00−22se019443 0.0 103320
27 february, sat
sat2701:00−22s12930 0.0 103620
04:00−22sse22930 0.0 103620
07:00−22sse22950 0.0 103730
10:00−18sse36920 0.0 1036228
13:00−13sse478866 0.0 1033412
16:00−10sse488583 0.0 1029503
19:00−10sse51483100 0.0 1025493
22:00−9s41781100 0.0 1024641
28 february, sun
sun2801:00−8s71886100 0.0 1021502
04:00−6s51691100 0.0 1020543
07:00−4s51489100 0.0 1020563
10:00−2sw41185100 0.1 1019905
13:00−2nw4797100 1.4 1021507
16:00−4nw4892100 2.2 1021801
19:00−9nnw31081100 0.2 1024394
22:00−12nw31182100 0.2 1027527
1 march, mon
mon101:00−16nw31087100 0.0 1029328
04:00−20wnw248960 0.0 103286
07:00−22w24890 0.0 103458
10:00−18nw387819 0.0 1035500
13:00−14nw476948 0.0 1035851
16:00−13nw356824 0.0 1034908
19:00−19n12850 0.0 103420
22:00−22se11840 0.0 103420
2 march, tue
tue201:00−23se11840 0.0 103420
04:00−23e008533 0.0 103420
07:00−22sse0187100 0.0 103420
10:00−18n139186 0.0 1034203
13:00−14nnw247116 0.0 1032706
16:00−13n35698 0.0 1031787
19:00−19n12850 0.0 103120
22:00−23e11800 0.0 103220